Regional Weather Roundup
Issued by NWS

Home | Current Version | Previous Version | Graphics & Text | Print | Product List | Glossary On
Versions: 1 2 3 4 5 6 7 8 9 10 11 12 13 14 15 16 17 18 19 20 21 22 23 24 25 26 27 28 29 30 31 32 33 34 35 36 37 38 39 40 41 42 43 44 45 46 47 48 49 50
000
ASUS43 KBIS 211459
RWRND

NORTH DAKOTA REGIONAL WEATHER ROUNDUP
NATIONAL WEATHER SERVICE BISMARCK ND
1000 AM CDT TUE OCT 21 2014

NOTE: "FAIR" INDICATES FEW OR NO CLOUDS BELOW 12,000 FEET WITH NO
SIGNIFICANT WEATHER AND/OR OBSTRUCTIONS TO VISIBILITY.


NDZ001>003-009>011-017-211600-
NORTHWEST NORTH DAKOTA

CITY           SKY/WX    TMP DP  RH WIND       PRES   REMARKS
WILLISTON      SUNNY     51  39  63 CALM      29.74S
MINOT          SUNNY     52  38  58 SE7       29.79F
$$

NDZ018>021-031>035-040>046-211600-
SOUTHWEST NORTH DAKOTA

CITY           SKY/WX    TMP DP  RH WIND       PRES   REMARKS
BISMARCK       SUNNY     55  39  54 SE9       29.83S
GARRISON         N/A     51  39  63 SE8       29.79F
HETTINGER ARPT SUNNY     48  40  73 SE6       29.78F
$$

NDZ004>008-012>016-024-026-027-054-211600-
NORTHEAST NORTH DAKOTA

CITY           SKY/WX    TMP DP  RH WIND       PRES   REMARKS
GRAND FORKS    SUNNY     45  40  82 SE18      30.00F
DEVILS LAKE    SUNNY     48  37  66 SE10      29.89F
$$

NDZ022-023-025-028>030-036>039-047>053-211600-
SOUTHEAST NORTH DAKOTA

CITY           SKY/WX    TMP DP  RH WIND       PRES   REMARKS
FARGO          SUNNY     49  40  71 SE15G26   30.02S
JAMESTOWN      SUNNY     52  39  61 SE17      29.90F
$$




USA.gov is the U.S. government's official web portal to all federal, state and local government web resources and services.